• în România
  • Lista ţărilor
  • Pe 7 zile
  • Temperatura apei
  • Hartă satelitară
  • Meteo pe hartă
  • Widget-uri
  • user-avatar
    Intrare

    Meteo pe oră la Yubaykulevo

    Astăzi, 17 August, Vineri

    Timp Temperatura Precipitaţii Vânt Presiune Umiditate
    00:00 +17°C° 0,1 mm 3 m/s 743 mmHg 97%
    01:00 +17°C° 0,1 mm 3 m/s 743 mmHg 98%
    02:00 +16°C° 0 mm 3 m/s 743 mmHg 97%
    03:00 +16°C° 0 mm 3 m/s 744 mmHg 97%
    04:00 +15°C° 0 mm 4 m/s 744 mmHg 97%
    05:00 +14°C° 0 mm 4 m/s 744 mmHg 96%
    06:00 +14°C° 0 mm 4 m/s 745 mmHg 94%
    07:00 +13°C° 0 mm 5 m/s 745 mmHg 93%
    08:00 +13°C° 0 mm 5 m/s 746 mmHg 91%
    09:00 +14°C° 0 mm 4 m/s 746 mmHg 89%
    10:00 +14°C° 0 mm 4 m/s 746 mmHg 85%
    11:00 +15°C° 0 mm 4 m/s 747 mmHg 80%
    12:00 +17°C° 0 mm 4 m/s 747 mmHg 75%
    13:00 +18°C° 0 mm 4 m/s 747 mmHg 70%
    14:00 +18°C° 0,1 mm 4 m/s 747 mmHg 68%
    15:00 +18°C° 0,1 mm 4 m/s 747 mmHg 65%
    16:00 +19°C° 0,1 mm 4 m/s 747 mmHg 62%
    17:00 +18°C° 0 mm 4 m/s 747 mmHg 67%
    18:00 +16°C° 0 mm 3 m/s 747 mmHg 71%
    19:00 +14°C° 0 mm 3 m/s 747 mmHg 76%
    20:00 +14°C° 0 mm 2 m/s 748 mmHg 77%
    21:00 +13°C° 0 mm 2 m/s 748 mmHg 79%
    22:00 +12°C° 0 mm 2 m/s 748 mmHg 81%
    23:00 +10°C° 0 mm 2 m/s 748 mmHg 83%

    Mâine, 18 August, Sâmbătă

    Timp Temperatura Precipitaţii Vânt Presiune Umiditate
    00:00 +10°C° 0 mm 2 m/s 748 mmHg 85%
    01:00 +9°C° 0 mm 2 m/s 748 mmHg 87%
    02:00 +9°C° 0 mm 2 m/s 748 mmHg 89%
    03:00 +8°C° 0 mm 2 m/s 748 mmHg 91%
    04:00 +8°C° 0 mm 2 m/s 748 mmHg 93%
    05:00 +9°C° 0 mm 2 m/s 749 mmHg 91%
    06:00 +9°C° 0 mm 2 m/s 749 mmHg 89%
    07:00 +10°C° 0 mm 3 m/s 749 mmHg 87%
    08:00 +12°C° 0 mm 3 m/s 749 mmHg 81%
    09:00 +13°C° 0 mm 3 m/s 749 mmHg 75%
    10:00 +15°C° 0 mm 4 m/s 749 mmHg 69%
    11:00 +15°C° 0 mm 4 m/s 749 mmHg 66%
    12:00 +17°C° 0 mm 4 m/s 749 mmHg 63%
    13:00 +18°C° 0 mm 4 m/s 749 mmHg 60%
    14:00 +18°C° 0,1 mm 4 m/s 749 mmHg 62%
    15:00 +16°C° 0,1 mm 5 m/s 749 mmHg 63%
    16:00 +16°C° 0,1 mm 5 m/s 749 mmHg 65%
    17:00 +15°C° 0 mm 4 m/s 749 mmHg 69%
    18:00 +14°C° 0 mm 4 m/s 749 mmHg 73%
    19:00 +13°C° 0 mm 3 m/s 749 mmHg 77%
    20:00 +12°C° 0 mm 3 m/s 749 mmHg 80%
    21:00 +10°C° 0 mm 3 m/s 749 mmHg 82%
    22:00 +9°C° 0 mm 3 m/s 750 mmHg 84%
    23:00 +9°C° 0 mm 3 m/s 750 mmHg 86%

    Poimâine, 19 August, Duminică

    Timp Temperatura Precipitaţii Vânt Presiune Umiditate
    00:00 +8°C° 0 mm 3 m/s 750 mmHg 87%
    01:00 +8°C° 0 mm 3 m/s 750 mmHg 89%
    02:00 +7°C° 0 mm 3 m/s 750 mmHg 90%
    03:00 +7°C° 0 mm 3 m/s 750 mmHg 92%
    04:00 +7°C° 0 mm 3 m/s 750 mmHg 93%
    05:00 +8°C° 0 mm 3 m/s 750 mmHg 90%
    06:00 +8°C° 0 mm 3 m/s 750 mmHg 88%
    07:00 +9°C° 0 mm 3 m/s 751 mmHg 85%
    08:00 +11°C° 0 mm 3 m/s 751 mmHg 80%
    09:00 +13°C° 0 mm 3 m/s 750 mmHg 74%
    10:00 +16°C° 0 mm 3 m/s 750 mmHg 68%
    11:00 +17°C° 0 mm 3 m/s 750 mmHg 65%
    12:00 +18°C° 0 mm 3 m/s 750 mmHg 61%
    13:00 +19°C° 0 mm 3 m/s 750 mmHg 57%
    14:00 +19°C° 0 mm 3 m/s 750 mmHg 57%
    15:00 +19°C° 0 mm 3 m/s 749 mmHg 57%
    16:00 +19°C° 0 mm 3 m/s 749 mmHg 57%
    17:00 +18°C° 0 mm 3 m/s 749 mmHg 64%
    18:00 +17°C° 0 mm 3 m/s 749 mmHg 70%
    19:00 +15°C° 0 mm 2 m/s 749 mmHg 77%
    20:00 +14°C° 0 mm 2 m/s 749 mmHg 80%
    21:00 +13°C° 0 mm 2 m/s 749 mmHg 83%
    22:00 +10°C° 0 mm 2 m/s 750 mmHg 86%
    23:00 +10°C° 0 mm 2 m/s 750 mmHg 86%

    20 August, Luni

    Timp Temperatura Precipitaţii Vânt Presiune Umiditate
    00:00 +10°C° 0 mm 1 m/s 750 mmHg 86%
    01:00 +10°C° 0 mm 1 m/s 749 mmHg 87%
    02:00 +9°C° 0 mm 1 m/s 749 mmHg 86%
    03:00 +9°C° 0 mm 1 m/s 749 mmHg 86%
    04:00 +8°C° 0 mm 0 m/s 749 mmHg 86%
    05:00 +9°C° 0 mm 0 m/s 749 mmHg 83%
    06:00 +10°C° 0 mm 0 m/s 750 mmHg 80%
    07:00 +11°C° 0 mm 0 m/s 750 mmHg 77%
    08:00 +13°C° 0 mm 0 m/s 750 mmHg 71%
    09:00 +14°C° 0 mm 0 m/s 749 mmHg 66%
    10:00 +18°C° 0 mm 1 m/s 749 mmHg 61%
    11:00 +19°C° 0 mm 1 m/s 749 mmHg 57%
    12:00 +20°C° 0 mm 1 m/s 749 mmHg 54%
    13:00 +21°C° 0 mm 1 m/s 748 mmHg 51%
    14:00 +21°C° 0 mm 1 m/s 748 mmHg 52%
    15:00 +21°C° 0 mm 1 m/s 748 mmHg 52%
    16:00 +20°C° 0 mm 2 m/s 748 mmHg 53%
    17:00 +20°C° 0 mm 1 m/s 748 mmHg 59%
    18:00 +18°C° 0 mm 1 m/s 747 mmHg 64%
    19:00 +16°C° 0 mm 1 m/s 747 mmHg 70%
    20:00 +15°C° 0 mm 1 m/s 747 mmHg 73%
    21:00 +14°C° 0 mm 1 m/s 747 mmHg 75%
    22:00 +13°C° 0 mm 1 m/s 747 mmHg 77%
    23:00 +13°C° 0 mm 1 m/s 747 mmHg 79%

    21 August, Marţi

    Timp Temperatura Precipitaţii Vânt Presiune Umiditate
    00:00 +12°C° 0 mm 2 m/s 747 mmHg 81%
    01:00 +12°C° 0 mm 2 m/s 747 mmHg 83%
    02:00 +12°C° 0 mm 2 m/s 747 mmHg 83%
    03:00 +12°C° 0 mm 2 m/s 747 mmHg 83%
    04:00 +12°C° 0 mm 2 m/s 747 mmHg 83%
    05:00 +13°C° 0 mm 2 m/s 747 mmHg 83%
    06:00 +13°C° 0 mm 2 m/s 747 mmHg 83%
    07:00 +13°C° 0 mm 3 m/s 747 mmHg 83%
    08:00 +14°C° 0,1 mm 3 m/s 746 mmHg 83%
    09:00 +14°C° 0,1 mm 3 m/s 746 mmHg 82%
    10:00 +16°C° 0,1 mm 3 m/s 746 mmHg 82%
    11:00 +16°C° 0,1 mm 3 m/s 746 mmHg 83%
    12:00 +17°C° 0,1 mm 3 m/s 746 mmHg 84%
    13:00 +17°C° 0,1 mm 3 m/s 746 mmHg 85%
    14:00 +18°C° 0,3 mm 3 m/s 745 mmHg 83%
    15:00 +19°C° 0,3 mm 3 m/s 745 mmHg 81%
    16:00 +20°C° 0,3 mm 3 m/s 745 mmHg 79%
    17:00 +20°C° 0,5 mm 3 m/s 745 mmHg 83%
    18:00 +19°C° 0,5 mm 2 m/s 745 mmHg 86%
    19:00 +18°C° 0,5 mm 2 m/s 745 mmHg 90%
    20:00 +18°C° 0,2 mm 2 m/s 745 mmHg 91%
    21:00 +17°C° 0,2 mm 2 m/s 745 mmHg 93%
    22:00 +16°C° 0,2 mm 2 m/s 745 mmHg 95%
    23:00 +16°C° 0 mm 2 m/s 744 mmHg 95%

    22 August, Miercuri

    Timp Temperatura Precipitaţii Vânt Presiune Umiditate
    00:00 +15°C° 0 mm 2 m/s 744 mmHg 96%
    01:00 +15°C° 0 mm 2 m/s 744 mmHg 96%
    02:00 +15°C° 0 mm 2 m/s 744 mmHg 96%
    03:00 +15°C° 0 mm 2 m/s 744 mmHg 96%
    04:00 +14°C° 0 mm 2 m/s 743 mmHg 97%
    05:00 +14°C° 0 mm 3 m/s 743 mmHg 96%
    06:00 +14°C° 0 mm 3 m/s 743 mmHg 95%
    07:00 +16°C° 0 mm 3 m/s 743 mmHg 94%
    08:00 +17°C° 0,1 mm 4 m/s 743 mmHg 91%
    09:00 +19°C° 0,1 mm 4 m/s 743 mmHg 87%
    10:00 +20°C° 0,1 mm 5 m/s 742 mmHg 83%
    11:00 +21°C° 1 mm 5 m/s 742 mmHg 81%
    12:00 +22°C° 1 mm 6 m/s 742 mmHg 78%
    13:00 +23°C° 1 mm 6 m/s 741 mmHg 75%
    14:00 +23°C° 1,1 mm 6 m/s 741 mmHg 78%
    15:00 +22°C° 1,1 mm 6 m/s 741 mmHg 80%
    16:00 +22°C° 1,1 mm 5 m/s 740 mmHg 83%
    17:00 +21°C° 0,6 mm 5 m/s 740 mmHg 85%
    18:00 +20°C° 0,6 mm 5 m/s 740 mmHg 88%
    19:00 +19°C° 0,6 mm 5 m/s 739 mmHg 90%
    20:00 +19°C° 1,2 mm 5 m/s 739 mmHg 91%
    21:00 +17°C° 1,2 mm 5 m/s 739 mmHg 92%
    22:00 +17°C° 1,2 mm 6 m/s 738 mmHg 93%
    23:00 +16°C° 0,2 mm 5 m/s 738 mmHg 94%
    Arată mai mult